Station 46050 (LLNR 641) - STONEWALL BANK - 20NM West of Newport, OR Image indicating link to RSS feed of recent meteorological observations for station 46050


Conditions at 46050 as of
(12:40 pm PDT)
1940 GMT on 06/22/2024:
     

Click on the graph icon in the table below to see a time series plot of the last five days of that observation.

5-day plot - Wind Direction Wind Direction (WDIR):SSE ( 150 deg true )
5-day plot - Wind Speed Wind Speed (WSPD): 5.8 kts
5-day plot - Wind Gust Wind Gust (GST): 7.8 kts
5-day plot - Atmospheric Pressure Atmospheric Pressure (PRES):29.98 in
5-day plot - Air Temperature Air Temperature (ATMP): 55.0 °F
5-day plot - Water Temperature Water Temperature (WTMP): 57.0 °F
5-day plot - Wind Speed at 10 Meters Wind Speed at 10 meters (WSPD10M): 5.8 kts
5-day plot - Wind Speed at 20 Meters Wind Speed at 20 meters (WSPD20M): 7.8 kts
5-day plot -  Wind Speed, Wind Gust and Atmospheric Pressure Combined plot of Wind Speed, Gust, and Air Pressure
Supplemental Measurements
Highest 1-minute Wind Speed
Time (PDT)5-day plot - 1-Minute Wind Speed WSPD 5-day plot - 1-Minute Wind Direction WDIR
12:34 pm 5.8 kts-
Previous observations
TIME
(PDT)
5-day plot - Wind Direction
WDIR
 
5-day plot - Wind Speed
WSPD
kts
5-day plot - Wind Gust
GST
kts
5-day plot - Wave Height
WVHT
ft
5-day plot - Dominant Wave Period
DPD
sec
5-day plot - Average Wave Period
APD
sec
5-day plot - Mean Wave Direction
MWD
 
5-day plot - Atmospheric Pressure
PRES
in
5-day plot - Pressure Tendency
PTDY
in
5-day plot - Air Temperature
ATMP
°F
5-day plot - Water Temperature
WTMP
°F
5-day plot - Dew Point
DEWP
°F
5-day plot - Salinity
SAL
psu
5-day plot - Visibility
VIS
nmi
5-day plot - Tide (above MLLW)
TIDE
ft
2024-06-22 12:30 pmSSE 5.8 7.8----29.98- 54.9 56.8----
2024-06-22 12:20 pmSSE 5.8 7.8 3.0 75.2 W29.98- 54.9 56.5----
2024-06-22 12:10 pmSSE 5.8 5.8 3.0-5.2 W29.98- 54.7 56.3----
2024-06-22 12:00 pmSSE 5.8 7.8----29.98+0.00 54.5 56.1----
2024-06-22 11:50 amSSE 5.8 7.8 3.0 85.2 W29.98- 54.3 55.9----
2024-06-22 11:40 amSSE 5.8 7.8 3.0-5.2 W29.98- 54.1 55.8----
2024-06-22 11:30 amSSE 5.8 7.8----29.98- 54.1 55.9----
2024-06-22 11:20 amSSE 5.8 7.8 3.0 65.1 NW29.97- 54.3 55.9----
2024-06-22 11:10 amSSE 5.8 5.8----29.98- 54.7 55.9----
2024-06-22 11:00 amSSE 3.9 5.8----29.97+0.00 54.7 56.3----
2024-06-22 10:50 amSSE 3.9 5.8 3.0 85.2 W29.98- 54.5 56.1----
2024-06-22 10:40 amSSE 3.9 5.8----29.97- 54.3 56.1----
2024-06-22 10:30 amSSE 3.9 5.8----29.97- 54.1 55.9----
2024-06-22 10:20 amSSE 3.9 5.8 3.0 85.3 W29.97- 54.1 55.9----
2024-06-22 10:10 am SE 5.8 5.8 3.0-5.3 W29.97- 54.1 55.8----
2024-06-22 10:00 amESE 5.8 7.8----29.97+0.00 54.7 55.6----
2024-06-22 09:50 amESE 3.9 5.8 3.3 85.1 W29.97- 55.0 55.6----
2024-06-22 09:40 am SE 3.9 5.8----29.98- 54.9 55.6----
2024-06-22 09:30 am SE 3.9 5.8----29.98- 55.4 55.6----
2024-06-22 09:20 am SE 1.9 3.9 3.3 65.1 NW29.98- 55.6 55.4----
2024-06-22 09:10 am SE 1.9 3.9----29.98- 55.4 55.2----
2024-06-22 09:00 am SE 1.9 3.9----29.97+0.00 55.2 55.2----
2024-06-22 08:50 amSSE 1.9 3.9 3.0 75.0 NW29.97- 55.0 55.0----
2024-06-22 08:40 amSSE 1.9 3.9----29.98- 54.9 55.0----
2024-06-22 08:30 am SE 1.9 3.9----29.97- 54.5 55.0----
2024-06-22 08:20 am SE 3.9 3.9 3.3 75.4 NW29.97- 54.3 54.9----
2024-06-22 08:10 am SE 3.9 5.8----29.97- 54.0 54.9----
2024-06-22 08:00 am SE 3.9 5.8----29.97+0.01 53.6 54.9----
2024-06-22 07:50 am SE 5.8 5.8 3.6 65.2 NW29.97- 53.4 54.9----
2024-06-22 07:40 amESE 5.8 5.8 3.6-5.2 NW29.97- 53.4 54.7----
2024-06-22 07:30 amESE 5.8 5.8----29.97- 53.4 54.7----
2024-06-22 07:20 amESE 5.8 7.8 3.3 75.2NNW29.97- 53.4 54.7----
2024-06-22 07:10 amESE 5.8 7.8 3.3-5.2NNW29.97- 53.8 54.9----
2024-06-22 07:00 am E 3.9 7.8----29.97+0.00 54.7 54.9----
2024-06-22 06:50 am N 3.9 5.8 3.6 75.3 NW29.97- 55.6 55.4----
2024-06-22 06:40 am N 3.9 5.8----29.96- 55.6 55.6----
2024-06-22 06:30 am N 3.9 5.8----29.97- 55.8 55.6----
2024-06-22 06:20 am N 3.9 5.8 3.6 75.3NNW29.97- 55.8 55.6----
2024-06-22 06:10 am N 3.9 5.8----29.97- 55.8 55.6----
2024-06-22 06:00 am N 3.9 5.8----29.97+0.00 55.8 55.6----
2024-06-22 05:50 am N 3.9 5.8 3.6 75.3 NW29.96- 55.8 55.8----
2024-06-22 05:40 am N 3.9 5.8----29.96- 55.8 55.8----
2024-06-22 05:30 am N 5.8 5.8----29.96- 55.9 55.8----
2024-06-22 05:20 am N 5.8 7.8 3.9 75.3 NW29.96- 55.9 55.9----
2024-06-22 05:10 am N 5.8 7.8 3.9-5.3 NW29.96- 55.9 55.9----
2024-06-22 05:00 am N 5.8 7.8----29.96-0.01 56.1 55.9----
2024-06-22 04:50 am N 5.8 7.8 3.6 75.2 NW29.96- 56.1 55.9----
2024-06-22 04:40 am N 5.8 9.7----29.96- 56.1 55.9----
2024-06-22 04:30 am N 5.8 9.7----29.97- 56.1 55.9----
2024-06-22 04:20 am N 5.8 7.8 3.9 75.3NNW29.97- 56.1 55.9----
2024-06-22 04:10 amNNW 5.8 7.8 3.9-5.3NNW29.97- 56.1 55.9----
2024-06-22 04:00 amNNW 5.8 9.7----29.97+0.00 56.1 55.9----
2024-06-22 03:50 amNNW 5.8 7.8 3.9 75.4NNW29.98- 55.9 55.8----
2024-06-22 03:40 amNNW 5.8 7.8----29.98- 56.1 55.9----
2024-06-22 03:30 amNNW 5.8 7.8----29.97- 55.9 55.9----
2024-06-22 03:20 am N 5.8 7.8 4.3 75.4 NW29.97- 55.9 55.9----
2024-06-22 03:10 am N 5.8 7.8----29.97- 55.9 55.9----
2024-06-22 03:00 am N 5.8 7.8----29.96-0.02 55.9 56.1----
2024-06-22 02:50 amNNE 5.8 7.8 3.9 75.2 NW29.96- 55.9 56.1----
2024-06-22 02:40 amNNE 5.8 9.7----29.97- 55.9 56.1----
2024-06-22 02:30 amNNE 5.8 7.8----29.97- 56.1 56.1----
2024-06-22 02:20 am N 5.8 7.8 3.9 75.0NNW29.97- 56.1 56.5----
2024-06-22 02:10 am N 5.8 7.8 3.9-5.0NNW29.97- 56.1 56.5----
2024-06-22 02:00 am N 7.8 9.7----29.97-0.01 56.1 56.7----
2024-06-22 01:50 am N 7.8 9.7 3.9 75.1 NW29.97- 56.3 56.7----
2024-06-22 01:40 am N 9.7 11.7----29.97- 56.3 56.7----
2024-06-22 01:30 amNNW 9.7 13.6----29.97- 56.3 56.8----
2024-06-22 01:20 amNNW 9.7 13.6 4.3 65.0NNW29.98- 56.5 56.8----
2024-06-22 01:10 amNNW 9.7 11.7----29.98- 56.5 57.0----
2024-06-22 01:00 amNNW 9.7 13.6----29.98-0.01 56.5 57.0----
2024-06-22 12:50 amNNW 11.7 13.6 4.6 75.1NNW29.98- 56.3 57.0----
2024-06-22 12:40 amNNW 11.7 13.6----29.98- 56.5 57.0----
2024-06-22 12:30 amNNW 9.7 13.6----29.98- 56.5 57.0----
2024-06-22 12:20 amNNW 9.7 11.7 3.9 74.9NNW29.98- 56.5 57.0----
2024-06-22 12:10 amNNW 9.7 11.7----29.98- 56.5 57.0----
2024-06-22 12:00 am N 9.7 11.7----29.98+0.00 56.5 57.2----
2024-06-21 11:50 pm N 9.7 11.7 3.9 75.0NNW29.98- 56.5 57.0----
2024-06-21 11:40 pm N 9.7 11.7 3.9-5.0NNW29.98- 56.5 57.0----
2024-06-21 11:30 pm N 9.7 13.6----29.98- 56.5 57.2----
2024-06-21 11:20 pm N 9.7 13.6 4.3 74.9 NW29.98- 56.5 57.2----
2024-06-21 11:10 pm N 11.7 13.6----29.98- 56.5 57.4----
2024-06-21 11:00 pm N 9.7 13.6----29.98+0.00 56.7 57.4----
2024-06-21 10:50 pm N 11.7 13.6 4.3 84.8 W29.98- 56.7 57.4----
2024-06-21 10:40 pm N 11.7 13.6----29.98- 56.7 57.4----
2024-06-21 10:30 pm N 11.7 13.6----29.98- 56.7 57.4----
2024-06-21 10:20 pm N 11.7 15.5 4.6 74.9 NW29.98- 56.8 57.4----
2024-06-21 10:10 pm N 11.7 15.5 4.6-4.9 NW29.99- 56.8 57.4----
2024-06-21 10:00 pm N 11.7 13.6----29.98+0.01 57.0 57.4----
2024-06-21 09:50 pm N 11.7 15.5 4.3 74.8NNW29.99- 57.0 57.4----
2024-06-21 09:40 pm N 11.7 15.5----29.99- 56.8-----
2024-06-21 09:30 pm N 11.7 15.5----29.98- 56.8 57.4----
2024-06-21 09:20 pm N 11.7 15.5 4.6 74.8NNW29.98- 57.0 57.4----
2024-06-21 09:10 pm N 13.6 15.5 4.6-4.8NNW29.98- 57.0 57.4----
2024-06-21 09:00 pm N 13.6 17.5----29.98+0.00 57.2 57.2----
2024-06-21 08:50 pm N 13.6 17.5 4.6 74.9NNW29.98- 57.0 57.2----
2024-06-21 08:40 pm N 13.6 17.5----29.98- 57.0 57.2----
2024-06-21 08:30 pm N 13.6 17.5----29.98- 57.2 57.0----
2024-06-21 08:20 pm N 13.6 17.5 4.6 74.7NNW29.98- 57.2 57.0----
2024-06-21 08:10 pm N 13.6 17.5 4.6-4.7NNW29.98- 57.4 57.2----
2024-06-21 08:00 pm N 13.6 17.5----29.98+0.00 57.4 57.2----
2024-06-21 07:50 pm N 13.6 17.5 4.9 74.7NNW29.98- 57.6 57.2----
2024-06-21 07:40 pm N 13.6 17.5----29.98- 57.6 57.2----
2024-06-21 07:30 pm N 13.6 17.5----29.97- 57.6 57.2----
2024-06-21 07:20 pm N 13.6 17.5 4.9 74.7NNW29.98- 57.6 57.0----
2024-06-21 07:10 pm N 13.6 19.4 4.9-4.7NNW29.98- 57.6 57.0----
2024-06-21 07:00 pm N 15.5 19.4----29.97-0.01 57.6 57.0----
2024-06-21 06:50 pm N 15.5 19.4 4.9 74.6NNW29.97- 57.6 57.0----
2024-06-21 06:40 pm N 13.6 19.4----29.98- 57.6 57.0----
2024-06-21 06:30 pm N 13.6 19.4----29.98- 57.6 57.0----
2024-06-21 06:20 pm N 13.6 17.5 5.2 74.8NNW29.97- 57.6 57.0----
2024-06-21 06:10 pmNNW 15.5 19.4----29.98- 57.4 57.0----
2024-06-21 06:00 pmNNW 15.5 21.4----29.98-0.02 57.4 57.2----
2024-06-21 05:50 pm N 15.5 19.4 4.9 74.7NNW29.97- 57.2 57.2----
2024-06-21 05:40 pm N 13.6 19.4----29.97- 57.4 57.2----
2024-06-21 05:30 pm N 15.5 19.4----29.98- 57.0 57.2----
2024-06-21 05:20 pm N 15.5 19.4 4.9 74.8NNW29.98- 57.0-----
2024-06-21 05:10 pm N 15.5 19.4 4.9-4.8NNW29.98- 57.0 56.7----
2024-06-21 05:00 pm N 15.5 19.4----29.98-0.01 57.0 57.0----
2024-06-21 04:50 pm N 15.5 19.4 5.2 74.8NNW29.98- 57.0 56.8----
2024-06-21 04:40 pm N 13.6 17.5----29.98- 56.8 56.8----
2024-06-21 04:30 pm N 13.6 19.4----29.98- 56.8 57.0----
2024-06-21 04:20 pm N 13.6 19.4 4.9 74.9NNW29.98- 56.8 57.0----
2024-06-21 04:10 pm N 13.6 19.4 4.9-4.9NNW29.98- 56.8 57.0----
2024-06-21 04:00 pm N 13.6 19.4----29.98-0.02 56.7 57.0----
2024-06-21 03:50 pm N 13.6 17.5 4.6 74.8NNW29.98- 56.7 57.0----
2024-06-21 03:40 pm N 13.6 17.5----29.98- 56.7 57.0----
2024-06-21 03:30 pm N 13.6 19.4----29.99- 56.7 57.0----
2024-06-21 03:20 pm N 15.5 19.4 5.2 74.8NNW30.00- 56.7 57.0----
2024-06-21 03:10 pm N 15.5 19.4 5.2-4.8NNW30.00- 56.7 56.8----
2024-06-21 03:00 pm N 15.5 19.4----30.00+0.00 56.7 56.8----
2024-06-21 02:50 pm N 13.6 19.4 4.9 74.8NNW30.00- 56.7 56.8----
2024-06-21 02:40 pm N 15.5 19.4----30.00- 56.5 56.8----
2024-06-21 02:30 pm N 15.5 19.4----30.00- 56.5 56.8----
2024-06-21 02:20 pm N 15.5 19.4 4.6 74.6NNW30.00- 56.5 56.7----
2024-06-21 02:10 pm N 15.5 19.4----30.00- 56.5 56.7----
2024-06-21 02:00 pm N 13.6 19.4----30.00+0.00 56.3 56.7----
2024-06-21 01:50 pm N 13.6 19.4 5.2 74.9NNW29.99- 56.3 56.5----
2024-06-21 01:40 pm N 15.5 19.4----29.99- 56.1 56.5----
2024-06-21 01:30 pm N 15.5 19.4----30.00- 56.5 56.5----
2024-06-21 01:20 pm N 15.5 21.4 4.9 74.8 N30.00- 56.5 56.5----
2024-06-21 01:10 pm N 15.5 19.4 4.9-4.8 N30.01- 56.3 56.5----
2024-06-21 01:00 pmNNW 15.5 19.4----30.01+0.01 56.5 56.5----
2024-06-21 12:50 pm N 15.5 19.4 4.9 64.7NNW30.00- 56.3 56.5----

Detailed Wave Summary
for 46050 as of (12:10 pm PDT)
1910 GMT on 06/22/2024:

These wave data are displayed in rounded times.

     

Click on the graph icon in the table below to see a time series plot of the last five days of that observation.

5-day plot - Significant Wave Height Significant Wave Height (WVHT): 3.0 ft
5-day plot - Swell Height Swell Height (SwH): 2.6 ft
5-day plot - Swell Period Swell Period (SwP): 7.1 sec
5-day plot - Swell Direction Swell Direction (SwD): W
5-day plot - Wind Wave Height Wind Wave Height (WWH): 1.3 ft
5-day plot - Wind Wave Period Wind Wave Period (WWP): 3.4 sec
5-day plot - Wind Wave Direction Wind Wave Direction (WWD):NNW
5-day plot - Wave Steepness Wave Steepness (STEEPNESS): AVERAGE
5-day plot - Average Wave Period Average Wave Period (APD): 5.2 sec
Previous observations
TIME
(PDT)
5-day plot - Wave Height
WVHT
ft
5-day plot - Swell Height
SwH
ft
5-day plot - Swell Period
SwP
sec
5-day plot - Swell Direction
SwD
 
5-day plot - Wind Wave Height
WWH
ft
5-day plot - Wind Wave Period
WWP
sec
5-day plot - Wind Wave Direction
WWD
 
5-day plot - Wave Steepness
STEEPNESS
 
5-day plot - Average Wave Period
APD
sec
2024-06-22 11:40 am 3.0 2.6 7.7 W 1.0 3.6 NW AVERAGE 5.2
2024-06-22 11:10 am 3.0 2.6 6.2 NW 1.3 4.0 NW STEEP 5.1
2024-06-22 10:40 am 3.0 3.0 7.7 W 1.3 4.0 NNW AVERAGE 5.2
2024-06-22 10:10 am 3.0 3.0 8.3 W 1.0 3.8 NNW SWELL 5.3
2024-06-22 09:40 am 3.3 3.0 7.7 W 1.3 3.8 NW AVERAGE 5.1
2024-06-22 09:10 am 3.3 3.0 6.2 NW 1.3 4.0 NW STEEP 5.1
2024-06-22 08:40 am 3.0 2.6 6.7 NW 1.3 3.7 NW AVERAGE 5.0
2024-06-22 08:10 am 3.3 3.3 6.7 NW 1.3 4.0 NW AVERAGE 5.4
2024-06-22 07:40 am 3.6 3.3 6.2 NW 1.3 4.0 NW STEEP 5.2
2024-06-22 07:10 am 3.3 3.3 6.7NNW 1.3 4.0 NNW AVERAGE 5.2
2024-06-22 06:40 am 3.6 3.3 6.7 NW 1.3 3.8 NNW AVERAGE 5.3
2024-06-22 06:10 am 3.6 3.3 6.7NNW 1.3 4.0 NNW AVERAGE 5.3
2024-06-22 05:40 am 3.6 3.3 7.1 NW 1.3 4.0 NNW AVERAGE 5.3
2024-06-22 05:10 am 3.9 3.6 6.7 NW 1.3 3.8 NNW STEEP 5.3
2024-06-22 04:40 am 3.6 3.6 6.7 NW 1.3 3.6 NNW STEEP 5.2
2024-06-22 04:10 am 3.9 3.6 7.1NNW 1.3 3.8 NNW AVERAGE 5.3
2024-06-22 03:40 am 3.9 3.9 7.1NNW 1.3 3.6 NNW AVERAGE 5.4
2024-06-22 03:10 am 4.3 3.9 7.1 NW 1.3 4.0 NNW AVERAGE 5.4
2024-06-22 02:40 am 3.9 3.6 7.1 NW 1.6 3.3 N AVERAGE 5.2
2024-06-22 02:10 am 3.9 3.6 7.1NNW 1.6 4.0 NNW AVERAGE 5.0
2024-06-22 01:40 am 3.9 3.6 7.1 NW 1.6 3.8 N AVERAGE 5.1
2024-06-22 01:10 am 4.3 3.6 6.2NNW 2.0 4.3 NNW STEEP 5.0
2024-06-22 12:40 am 4.6 3.6 7.1NNW 2.3 4.3 NNW STEEP 5.1
2024-06-22 12:10 am 3.9 3.6 6.7NNW 2.0 3.2 N STEEP 4.9
2024-06-21 11:40 pm 3.9 3.6 7.1NNW 2.0 4.3 NNW AVERAGE 5.0
2024-06-21 11:10 pm 4.3 3.6 7.1 NW 2.6 4.5 NNW STEEP 4.9
2024-06-21 10:40 pm 4.3 3.3 8.3 W 3.0 5.3 NNW AVERAGE 4.8
2024-06-21 10:10 pm 4.6 3.6 7.1 NW 3.0 4.5 NNW STEEP 4.9
2024-06-21 09:40 pm 4.3 3.0 6.7NNW 3.0 5.6 NNW STEEP 4.8
2024-06-21 09:10 pm 4.6 3.0 6.7NNW 3.3 5.9 NNW STEEP 4.8
2024-06-21 08:40 pm 4.6 2.6 7.1NNW 3.6 5.3 NNW STEEP 4.9
2024-06-21 08:10 pm 4.6 3.0 6.7NNW 3.6 5.6 NNW STEEP 4.7
2024-06-21 07:40 pm 4.9 3.0 7.1NNW 3.9 6.2 NNW STEEP 4.7
2024-06-21 07:10 pm 4.9 3.3 7.1NNW 3.9 5.6 NNW STEEP 4.7
2024-06-21 06:40 pm 4.9 2.3 8.3WNW 4.3 6.7 NNW STEEP 4.6
2024-06-21 06:10 pm 5.2 2.0 12.9WSW 4.6 7.1 NNW STEEP 4.8
2024-06-21 05:40 pm 4.9 2.3 7.1NNW 4.3 6.2 NNW STEEP 4.7
2024-06-21 05:10 pm 4.9 2.3 9.1WNW 4.3 6.7 NNW STEEP 4.8
2024-06-21 04:40 pm 5.2 2.0 13.8 SW 4.9 6.7 NNW STEEP 4.8
2024-06-21 04:10 pm 4.9 3.3 6.7NNW 3.6 5.3 NW STEEP 4.9
2024-06-21 03:40 pm 4.6 2.6 12.9 E 3.9 6.7 NNW STEEP 4.8
2024-06-21 03:10 pm 5.2 2.0 8.3 W 4.6 6.7 NNW STEEP 4.8
2024-06-21 02:40 pm 4.9 2.6 8.3WNW 4.3 6.7 NNW STEEP 4.8
2024-06-21 02:10 pm 4.6 2.3 7.1NNW 3.9 5.6 NNW STEEP 4.6
2024-06-21 01:40 pm 5.2 3.0 7.1NNW 4.3 6.2 NNW STEEP 4.9
2024-06-21 01:10 pm 4.9 3.3 7.1 N 3.6 5.9 NNW STEEP 4.8

Plot of wave energy versus frequency (and period)